Wind_Speed
65 61 63 62 50 42 38 36 41 44 49 52 57 59 59 57 56 55 58 56 63 80 92 89 88 86 85 78 75 78 74 72 74 74 73 72 70 69 66 66 64 66 70 73 72
66 67 62 59 51 46 40 39 38 45 48 55 57 62 64 62 60 60 57 61 59 65 83 95 91 92 88 86 85 83 79 79 80 75 74 72 67 64 63 65 67 68 66 68 69
69 66 66 63 54 48 42 39 41 42 50 53 59 63 67 67 66 64 62 60 62 63 66 85 96 94 91 93 87 83 83 86 83 85 81 77 73 70 67 66 68 68 66 65 64
75 69 68 61 56 49 44 40 39 42 46 54 59 64 68 71 69 70 68 66 63 62 66 65 78 98 98 93 95 92 86 87 87 86 84 81 77 76 73 70 67 65 65 64 65
77 71 70 63 58 54 46 41 38 41 45 51 59 64 69 71 74 72 74 71 69 65 62 67 65 75 95 100 99 94 94 88 86 88 87 85 82 78 73 69 72 66 67 65 65
82 77 75 68 61 56 51 43 39 40 44 49 56 63 69 70 77 77 77 77 74 72 67 65 67 66 72 92 95 96 98 95 91 86 85 84 82 77 78 77 76 71 71 68 67
86 82 79 72 66 58 53 47 43 40 43 49 54 61 68 75 81 81 82 82 79 77 75 70 65 67 65 69 85 97 99 98 95 95 92 89 84 79 83 81 79 76 74 72 70
88 89 87 81 72 63 57 51 46 43 44 47 53 57 60 77 83 80 84 83 84 81 81 77 71 67 67 64 65 76 93 98 94 98 97 96 90 90 87 85 82 80 80 78 74
91 92 95 83 75 68 61 53 50 46 44 46 49 56 58 71 77 85 84 88 85 91 85 82 79 71 68 66 68 63 65 78 95 98 95 95 94 93 89 88 85 82 79 76 72
96 98 93 87 78 73 66 59 55 49 48 44 47 51 60 69 80 84 88 90 92 92 87 86 82 77 69 69 64 64 62 62 68 84 97 97 88 91 91 86 84 79 77 73 70
103 101 96 88 81 74 70 62 61 54 50 47 47 51 59 71 81 80 86 91 96 97 93 88 86 73 69 73 76 73 68 64 63 63 74 83 91 92 87 84 82 79 76 72 70
108 102 93 87 83 77 71 64 62 60 55 56 52 53 62 67 79 84 83 89 92 96 98 94 84 84 81 77 78 73 69 66 64 57 57 66 75 82 85 80 80 80 78 77 74
110 101 92 88 84 79 71 65 62 63 55 62 59 53 64 70 75 87 87 86 90 98 99 95 92 92 87 83 73 73 71 71 65 60 57 55 66 73 75 76 73 73 76 73 71
109 100 94 90 84 80 73 66 62 58 49 55 58 52 63 73 74 80 88 87 87 92 94 96 100 96 92 87 82 74 75 73 68 67 61 54 55 65 68 67 67 68 66 67 68
103 99 96 91 86 81 74 68 62 53 45 47 52 53 59 70 80 81 87 90 85 88 93 90 95 99 93 87 85 79 78 75 73 67 62 54 49 55 61 61 60 62 62 62 61
103 100 98 93 87 82 74 68 60 51 46 45 50 53 56 63 80 86 84 88 89 93 93 97 95 102 99 96 90 87 78 75 73 71 62 56 47 48 56 60 62 61 59 59 58
102 100 99 94 89 82 75 67 58 51 44 40 44 48 54 61 69 84 86 86 89 90 89 93 93 95 102 99 95 91 84 81 76 69 56 58 49 45 48 61 63 62 61 60 59
103 101 99 94 88 81 74 65 57 46 38 33 37 42 48 57 65 80 90 89 88 90 92 93 97 91 98 102 98 90 91 83 76 68 63 61 52 45 53 59 61 63 62 58 57
104 101 98 93 87 80 73 62 54 42 33 29 34 41 43 47 58 72 89 90 87 87 92 97 96 96 90 106 104 103 88 90 83 74 66 62 58 53 60 60 60 61 62 57 55
103 100 97 92 85 78 69 59 50 39 31 28 30 37 43 45 49 63 78 90 90 90 93 96 101 96 99 93 107 99 98 90 84 78 70 63 63 60 62 62 60 60 61 58 55
101 99 96 90 83 76 66 57 46 36 29 25 26 33 42 46 48 55 68 83 93 93 93 94 97 99 100 99 95 105 102 94 84 84 74 70 66 65 65 64 63 62 61 57 56
100 96 93 87 80 74 62 55 44 36 29 25 24 28 37 46 49 51 60 75 89 94 94 93 95 96 101 104 101 97 97 101 94 79 77 75 71 68 67 64 67 63 63 60 58
98 93 89 83 77 70 60 53 42 36 30 24 22 26 33 41 48 52 56 65 78 92 97 97 95 97 100 101 101 96 94 87 90 93 84 81 74 71 71 69 71 69 65 63 62
95 91 85 80 75 67 58 50 40 35 30 24 20 23 29 35 45 51 56 59 69 84 99 101 96 96 94 97 99 102 94 90 89 87 87 82 80 75 74 75 73 74 68 63 62
91 88 82 78 72 64 56 47 40 35 31 23 18 22 28 33 39 46 52 57 61 74 91 98 96 97 95 97 99 97 104 100 95 91 80 82 80 80 76 74 74 77 73 66 60
89 85 80 75 70 63 55 45 38 34 29 23 19 20 26 30 35 41 47 53 54 63 76 90 96 98 97 97 95 93 97 102 97 93 85 79 82 81 81 78 77 77 77 71 65
86 83 77 73 68 60 54 45 38 33 28 22 19 20 24 26 31 38 43 46 51 54 62 75 89 97 96 97 95 93 85 96 92 92 83 76 77 79 80 82 80 79 82 78 71
Wind_Direction
345 347 353 345 333 318 304 288 274 263 253 242 245 243 238 235 230 233 229 226 225 222 221 222 223 223 223 222 224 227 228 232 234 235 235 234 235 235 238 238 241 242 242 241 242
341 348 347 345 335 321 306 291 276 268 255 246 239 240 240 236 229 229 231 229 226 225 224 221 223 223 225 226 225 226 225 228 233 237 238 239 237 237 238 238 239 241 242 243 244
341 345 347 346 337 325 310 296 281 264 261 249 242 236 238 235 235 226 228 230 229 227 225 225 224 223 224 226 225 224 225 226 229 233 234 237 239 240 239 240 239 240 242 244 244
341 342 344 344 337 331 314 301 286 270 256 251 246 241 235 235 232 231 224 228 231 230 229 227 228 225 224 225 228 225 226 229 229 231 232 232 233 236 236 238 241 242 243 243 243
343 338 342 338 338 334 320 305 289 273 259 249 245 242 239 234 233 232 228 222 228 231 230 231 229 227 226 226 229 229 229 230 230 232 232 233 235 236 239 237 242 243 242 242 243
341 339 342 339 337 335 325 311 294 277 263 253 244 242 241 237 233 230 230 225 222 228 231 231 231 230 228 226 227 230 231 230 231 233 233 234 235 237 241 241 242 242 242 243 246
342 341 341 340 336 333 327 316 300 284 269 254 248 241 237 237 236 230 229 229 224 222 228 231 229 230 230 229 229 228 232 232 232 235 234 234 236 238 239 241 242 242 243 245 248
339 343 339 339 336 333 326 317 305 290 275 260 250 243 238 237 236 234 228 226 229 222 222 227 229 228 229 230 231 230 231 231 235 237 236 238 238 240 240 242 243 245 246 248 250
340 341 339 339 334 331 326 318 306 294 279 267 254 245 238 240 237 234 231 225 227 225 222 221 226 229 229 228 229 230 232 233 235 234 235 238 239 240 242 243 243 245 247 249 249
339 339 338 337 333 329 326 319 307 296 283 271 258 247 237 236 237 232 231 229 225 222 222 222 220 225 228 229 231 231 228 229 231 233 235 236 235 238 239 240 242 244 245 245 248
339 338 336 335 331 328 326 319 309 299 286 271 256 249 239 234 239 234 230 229 228 226 224 224 221 218 225 228 228 228 227 229 232 232 234 236 237 237 237 238 241 242 244 246 246
338 337 335 334 329 328 325 317 307 297 290 280 260 247 241 235 233 236 230 228 228 227 225 223 221 220 221 227 228 228 228 230 232 232 237 234 234 235 235 234 235 238 241 243 244
337 335 334 332 330 328 323 316 307 297 289 277 265 246 239 233 231 233 232 226 225 225 227 222 219 223 219 223 225 225 229 231 231 233 234 234 232 230 230 230 232 234 236 239 242
335 334 333 331 330 327 322 316 309 299 288 267 262 251 235 231 229 231 232 229 223 224 226 224 219 220 221 218 222 223 228 229 229 230 230 233 231 230 228 228 230 233 235 237 239
335 333 333 330 330 327 323 318 312 303 288 269 259 247 236 230 224 225 229 229 223 221 224 224 221 219 220 222 220 222 226 227 229 229 229 231 233 233 227 227 229 231 233 236 238
334 334 333 330 330 328 325 321 314 305 289 278 259 248 239 228 224 225 227 226 223 220 219 221 221 217 217 219 221 220 222 226 227 227 226 230 229 236 228 224 227 228 230 234 236
333 334 332 331 331 329 326 323 317 308 296 280 263 253 239 231 223 222 224 226 225 224 219 220 222 219 219 219 220 222 220 222 223 226 223 229 228 236 233 226 226 227 229 232 235
333 334 331 332 332 329 328 324 319 311 296 279 261 254 244 236 224 217 221 223 222 222 219 219 218 223 219 220 221 220 223 223 222 220 223 225 223 230 231 227 225 225 227 229 234
333 333 332 332 332 330 329 326 321 310 295 275 258 253 244 237 230 220 218 220 221 221 221 220 217 217 223 219 220 220 222 225 222 217 218 220 221 223 229 229 223 224 224 224 232
332 333 332 332 331 331 330 327 321 311 296 278 258 247 245 236 230 227 222 218 218 219 220 219 220 218 217 223 218 220 219 221 221 218 214 216 219 222 230 230 225 225 223 220 230
332 332 332 332 331 332 331 328 321 312 298 282 260 246 241 237 230 227 224 220 216 219 220 219 220 220 218 218 224 220 220 222 222 218 219 216 217 220 227 228 227 221 223 223 230
331 332 332 332 332 333 331 329 322 314 303 290 267 247 239 236 230 226 226 221 217 218 219 220 220 219 220 217 219 225 221 221 219 219 217 222 219 219 227 229 228 221 222 223 226
331 332 331 331 332 333 332 329 322 316 308 300 279 253 239 236 232 226 223 223 218 216 219 220 219 219 220 220 220 222 227 223 221 220 222 218 218 221 224 228 226 221 223 227 229
330 331 331 331 333 333 332 329 324 318 314 309 282 254 239 234 232 227 223 221 220 216 218 220 217 220 219 222 222 217 223 223 221 217 218 218 220 219 221 227 226 222 223 226 231
331 330 332 332 333 333 333 330 325 322 318 312 283 257 241 232 231 228 224 221 219 218 219 220 217 218 220 220 221 218 218 221 220 218 220 217 220 219 221 226 230 226 224 226 230
331 330 331 332 334 333 333 329 326 323 318 311 280 252 243 234 228 226 224 220 219 219 219 220 218 220 219 220 220 221 219 220 224 223 220 214 214 220 220 224 227 229 226 227 231
331 330 332 334 334 333 332 329 327 323 319 308 284 262 246 238 231 227 222 218 218 219 220 219 218 220 221 221 220 220 220 218 218 222 222 220 218 223 222 225 228 228 227 228 230
Height
10642 10630 10617 10607 10595 10588 10581 10574 10571 10568 10567 10566 10569 10572 10576 10582 10587 10592 10595 10601 10606 10613 10622 10631 10640 10647 10655 10664 10672 10679 10694 10702 10704 10707 10712 10723 10728 10735 10743 10747 10755 10759 10763 10768 10774
10632 10619 10605 10595 10585 10575 10566 10561 10556 10553 10551 10551 10551 10555 10559 10564 10572 10577 10583 10587 10592 10597 10605 10612 10622 10630 10640 10648 10657 10668 10679 10683 10686 10696 10701 10709 10718 10727 10732 10738 10742 10747 10752 10757 10764
10620 10605 10595 10582 10571 10561 10551 10543 10540 10536 10535 10534 10535 10537 10541 10546 10553 10563 10568 10574 10578 10582 10588 10597 10605 10615 10624 10633 10643 10654 10667 10665 10674 10675 10688 10696 10707 10713 10720 10726 10728 10735 10744 10748 10754
10609 10595 10580 10564 10557 10545 10536 10527 10522 10518 10518 10517 10518 10521 10522 10527 10537 10542 10551 10557 10563 10569 10575 10581 10587 10598 10608 10618 10624 10636 10644 10651 10658 10664 10674 10683 10694 10698 10707 10712 10720 10726 10732 10737 10741
10593 10581 10567 10552 10539 10529 10520 10512 10504 10501 10497 10499 10499 10502 10504 10511 10518 10524 10532 10539 10547 10554 10561 10566 10572 10579 10591 10600 10607 10622 10628 10637 10645 10651 10660 10671 10679 10686 10697 10705 10705 10716 10718 10724 10730
10579 10564 10552 10539 10525 10514 10504 10496 10490 10484 10481 10478 10479 10483 10488 10497 10494 10507 10514 10523 10528 10538 10546 10553 10559 10564 10572 10583 10595 10603 10611 10620 10630 10639 10647 10656 10666 10679 10681 10690 10692 10701 10706 10713 10719
10562 10547 10534 10520 10507 10496 10487 10479 10471 10467 10464 10460 10460 10462 10469 10475 10471 10484 10493 10501 10510 10517 10528 10537 10544 10552 10560 10566 10577 10589 10595 10603 10616 10624 10633 10639 10654 10668 10662 10672 10679 10687 10695 10703 10708
10548 10529 10516 10503 10490 10479 10470 10460 10453 10449 10444 10442 10441 10443 10455 10447 10450 10465 10470 10480 10488 10497 10506 10518 10529 10537 10545 10556 10561 10568 10575 10592 10600 10608 10617 10624 10642 10641 10651 10657 10666 10674 10682 10689 10697
10529 10513 10497 10482 10470 10460 10450 10443 10434 10429 10426 10423 10424 10426 10435 10430 10435 10438 10449 10459 10466 10478 10489 10498 10511 10524 10532 10543 10545 10557 10567 10575 10579 10591 10597 10609 10620 10624 10636 10643 10653 10661 10669 10676 10684
10511 10497 10480 10463 10450 10438 10429 10422 10413 10409 10404 10406 10405 10406 10414 10409 10403 10415 10426 10436 10445 10457 10470 10483 10493 10508 10523 10530 10544 10546 10552 10555 10560 10567 10580 10593 10602 10610 10619 10632 10640 10649 10658 10664 10673
10494 10477 10463 10447 10433 10418 10408 10399 10390 10387 10384 10384 10384 10385 10387 10388 10382 10395 10407 10414 10423 10438 10454 10466 10478 10500 10510 10515 10514 10524 10535 10543 10548 10560 10568 10579 10587 10597 10607 10621 10629 10638 10645 10652 10657
10474 10456 10442 10428 10413 10399 10387 10377 10368 10360 10363 10357 10360 10364 10361 10366 10366 10369 10384 10395 10407 10422 10430 10445 10473 10477 10483 10490 10501 10516 10525 10532 10538 10553 10557 10565 10573 10581 10595 10607 10613 10622 10631 10637 10645
10455 10437 10423 10408 10392 10378 10367 10355 10344 10334 10337 10323 10325 10340 10337 10336 10343 10344 10355 10371 10385 10393 10409 10430 10447 10450 10463 10475 10489 10504 10512 10516 10528 10538 10545 10552 10559 10568 10580 10588 10600 10609 10615 10625 10633
10434 10418 10400 10385 10370 10356 10343 10329 10319 10309 10310 10297 10295 10309 10312 10312 10319 10327 10335 10346 10363 10380 10387 10405 10419 10433 10447 10461 10473 10488 10494 10503 10514 10521 10532 10542 10551 10559 10569 10579 10589 10595 10606 10611 10620
10414 10397 10379 10361 10347 10333 10319 10305 10293 10284 10281 10274 10269 10275 10277 10290 10289 10301 10309 10321 10344 10356 10366 10391 10402 10421 10436 10451 10457 10470 10477 10490 10499 10511 10523 10536 10544 10552 10559 10568 10577 10583 10592 10600 10608
10393 10375 10358 10340 10325 10309 10296 10283 10270 10260 10253 10251 10245 10248 10255 10262 10271 10275 10292 10304 10318 10325 10346 10358 10375 10396 10414 10426 10440 10448 10465 10474 10488 10499 10517 10527 10538 10542 10552 10557 10561 10571 10581 10589 10598
10374 10355 10339 10320 10303 10288 10275 10261 10249 10239 10233 10229 10225 10228 10235 10240 10251 10265 10271 10285 10301 10314 10336 10351 10363 10381 10397 10411 10423 10439 10450 10459 10473 10490 10517 10518 10530 10539 10542 10545 10551 10561 10569 10578 10585
10355 10336 10321 10301 10285 10270 10256 10242 10231 10222 10215 10212 10210 10209 10215 10222 10232 10245 10250 10264 10279 10297 10313 10329 10346 10364 10383 10395 10413 10425 10436 10450 10463 10485 10499 10505 10523 10531 10528 10532 10539 10548 10557 10566 10575
10337 10320 10302 10284 10268 10253 10239 10227 10215 10208 10202 10199 10197 10195 10199 10205 10217 10225 10233 10250 10265 10284 10294 10311 10329 10344 10359 10370 10388 10401 10422 10432 10452 10469 10483 10498 10509 10516 10512 10520 10529 10536 10547 10556 10565
10321 10303 10286 10268 10254 10239 10225 10212 10202 10195 10189 10186 10185 10185 10185 10190 10201 10210 10218 10232 10247 10260 10274 10291 10305 10328 10340 10352 10368 10393 10399 10412 10437 10459 10474 10485 10493 10503 10502 10509 10520 10527 10536 10546 10556
10306 10286 10269 10254 10238 10225 10212 10200 10190 10182 10177 10174 10172 10172 10172 10177 10186 10194 10207 10217 10229 10242 10257 10274 10288 10307 10320 10343 10356 10373 10389 10409 10426 10441 10461 10474 10481 10489 10491 10499 10508 10517 10527 10537 10546
10292 10273 10256 10242 10226 10212 10200 10187 10178 10171 10166 10162 10160 10160 10161 10164 10172 10182 10191 10202 10214 10226 10241 10258 10272 10291 10308 10317 10336 10355 10373 10386 10410 10434 10451 10460 10468 10478 10482 10489 10496 10507 10516 10526 10535
10278 10261 10245 10230 10215 10202 10189 10177 10168 10161 10155 10152 10150 10149 10149 10152 10158 10168 10177 10187 10202 10215 10224 10237 10257 10271 10284 10305 10327 10349 10364 10384 10401 10414 10432 10443 10456 10466 10470 10476 10485 10495 10504 10513 10522
10265 10247 10234 10218 10203 10190 10178 10168 10158 10151 10145 10142 10139 10138 10139 10143 10147 10154 10163 10174 10188 10199 10206 10216 10240 10256 10279 10300 10309 10331 10349 10365 10378 10395 10417 10432 10441 10453 10457 10462 10472 10483 10492 10502 10512
10254 10235 10223 10206 10192 10179 10168 10158 10149 10141 10135 10133 10131 10129 10130 10133 10137 10144 10151 10161 10173 10184 10192 10206 10229 10242 10260 10273 10291 10311 10327 10339 10358 10387 10399 10416 10428 10439 10450 10452 10461 10471 10482 10491 10500
10239 10222 10210 10195 10180 10168 10158 10149 10142 10134 10128 10124 10121 10121 10121 10125 10129 10134 10141 10150 10162 10171 10182 10198 10215 10226 10243 10258 10277 10295 10314 10334 10353 10370 10382 10397 10415 10418 10432 10441 10447 10458 10470 10480 10489
10225 10209 10197 10184 10170 10159 10149 10140 10133 10126 10121 10116 10113 10113 10114 10117 10121 10126 10132 10141 10151 10162 10171 10185 10200 10214 10232 10244 10258 10278 10310 10326 10342 10353 10377 10394 10407 10409 10424 10429 10434 10443 10455 10467 10478